Showing default

GALAXY 35, 54741

Orbit data source: Space-Track

GALAXY 35, 54741 is a payload satellite owned by Intelsat SA (US) (US) in GEO that was launched on Tue, 13 Dec 2022 UTC via an ARIANE 5ECA+ launch vehicle from the French Guiana (FRGUI). Payload-class satellites include a variety of spacecraft equipped with specific instruments for various scientific and technological missions. These include communications satellites like Starlink; space stations such as the ISS; scientific satellites like the Hubble; Earth observation satellites from companies like Planet Labs, Umbra, and HawkEye 360; GPS; miniature CubeSats for education and research; and military/defense satellites.

Loading next visibility...
Identifier
54741, 2022-170A
Orbit
GEO
Country
Flag of USUS
Related business
Manufacturer
Maxar Space Sol
Mission
Operational Commercial Communications
Bus & Motor
SSL-1300, R-4D
Mass
3,150 kg wet, ~2,000 kg dry
Launch date (UTC)
2022-12-13 (3 years ago)
Launch vehicle
ARIANE 5ECA+
Launch site
French Guiana (FRGUI)
Object type
Payload
Rocket body
Debris
Shape & HBR
Box + 2 Pan, 6.0 m
Radar Cross Section
30.995 m², Large (>1 m²)

Expand to show TLE details & history
Last TLE update: 7 hours ago

TLE from 7 hours ago
0 GALAXY 35
1 54741U 22170A   25287.89612119 -.00000177  00000-0  00000-0 0  9990
2 54741   0.0204 133.6376 0002152  78.7650  40.7825  1.00271058 10439
Epoch: 2025-10-14T21:30Z
TLE epoch observation values (Epoch: 2025-10-14T21:30:24.870Z)
Latitude
0.02474°
Longitude
-93.09567°
Altitude
35,779.402 km
Speed
3.075 km/s
True Right ascension
16h 52m 44s
True Declination
0° 01' 29"
Sunlit
Object was in daylight at epoch
Visualization orbit readout
Latitude
Unknown
Longitude
Unknown
Altitude
Unknown
Speed
Unknown
Apparent Right ascension
Unknown
Apparent Declination
Unknown
Sunlit
N/A
Visualization observer readout
Local Sidereal Time
23:15:34
Azimuth
Unknown
Elevation
Unknown
Doppler factor
Unknown
Orbital elements
Apogee altitude
35,796.943 km
Perigee altitude
35,778.795 km
Semi-major axis
42,166.006 km
Eccentricity
0.00022
Inclination
0.0204°
RAAN
133.6376°
Arg. of periapsis
78.765°
True anomaly
40.79861°
Mean anomaly
40.7825°
Eccentric anomaly
40.79056°
Mean motion
0.25067 °/min
Orbital period
1,436.16 mins
BSTAR
0
Loading maneuver chart data...
Computing Atmospheric mass density...
Loading historical data...
Loading historical data...
Loading historical data...
Loading historical data...
Loading historical data...
Loading historical data...
Loading historical data...
Other satellites on launch #170 in the year 2022 (2022-12-13 UTC)

Documentation

Showing up to 5 results
|